This is the latest recevied weather packets stored in our database for station/object W0VI. If no packets are shown the sender has not sent any weather packets the latest 10 day(s).
| Time | Temp. | Humidity | Pressure | Rain* | Wind** | Luminosity | Snow |
|---|---|---|---|---|---|---|---|
| 1777470393 | 6.67° C | 56% | 1019.6 hPa | 0 mm | - | 285 W/m² | - |
| 1777470091 | 6.11° C | 58% | 1019.7 hPa | 0 mm | - | 281 W/m² | - |
| 1777469787 | 5.56° C | 58% | 1019.7 hPa | 0 mm | - | 248 W/m² | - |
| 1777469476 | 6.11° C | 58% | 1019.7 hPa | 0 mm | - | 241 W/m² | - |
| 1777469171 | 5.56° C | 60% | 1019.6 hPa | 0 mm | - | 243 W/m² | - |
| 1777468865 | 5.56° C | 61% | 1019.4 hPa | 0 mm | - | 223 W/m² | - |
| 1777468563 | 5° C | 61% | 1019.5 hPa | 0 mm | - | 207 W/m² | - |
| 1777468259 | 5° C | 62% | 1019.6 hPa | 0 mm | - | 193 W/m² | - |
| 1777467955 | 4.44° C | 64% | 1019.4 hPa | 0 mm | - | 161 W/m² | - |
| 1777467651 | 4.44° C | 65% | 1019.6 hPa | 0 mm | - | 159 W/m² | - |
| 1777467347 | 4.44° C | 67% | 1019.2 hPa | 0 mm | - | 47 W/m² | - |
| 1777467043 | 3.89° C | 66% | 1019.4 hPa | 0 mm | - | 56 W/m² | - |
| 1777466741 | 3.89° C | 68% | 1019.3 hPa | 0 mm | - | 69 W/m² | - |
| 1777466438 | 3.89° C | 68% | 1019.5 hPa | 0 mm | - | 85 W/m² | - |
| 1777466134 | 3.89° C | 69% | 1019.7 hPa | 0 mm | - | 88 W/m² | - |
| 1777465831 | 3.33° C | 70% | 1019.4 hPa | 0 mm | - | 82 W/m² | - |
| 1777465526 | 3.33° C | 70% | 1019.6 hPa | 0 mm | - | 49 W/m² | - |
| 1777465221 | 3.33° C | 71% | 1019.2 hPa | 0 mm | - | 40 W/m² | - |
| 1777464916 | 2.78° C | 72% | 1019.4 hPa | 0 mm | - | 49 W/m² | - |
| 1777464611 | 2.78° C | 72% | 1019.1 hPa | 0 mm | - | 40 W/m² | - |
| 1777464308 | 2.78° C | 73% | 1019.1 hPa | 0 mm | - | 29 W/m² | - |
| 1777464003 | 2.22° C | 73% | 1019.1 hPa | 0 mm | - | 28 W/m² | - |
| 1777463698 | 2.22° C | 74% | 1018.7 hPa | 0 mm | - | 25 W/m² | - |
| 1777463393 | 2.22° C | 74% | 1019 hPa | 0 mm | - | 23 W/m² | - |
| 1777463089 | 2.22° C | 74% | 1018.9 hPa | 0 mm | - | 21 W/m² | - |
* Rain latest hour (hover to see other rain measurements)
** Current wind speed in m/s (hover to see current wind gust speed)